Location: Paris
(48.6709°N, 2.3750°E)
Time: 12:17:22
(UTC+02:00)

NOAA 18 - Pass Details

Date: 07 July 2022
Orbit: 839 x 860 km, 98.9° (Epoch: 10 August)

Event Time Altitude Azimuth Distance (km) Brightness Sun altitude
Exits shadow 23:25:33 12° 168° (SSE) 2,315 6.9 -11.3°
Maximum altitude 23:30:39 80° 255° (WSW) 876 5.3 -11.8°
Drops below altitude 10° 23:36:14 10° 343° (NNW) 2,508 9.0 -12.3°
Sets 23:38:38 0° 345° (NNW) 3,450 10.0 -12.5°
